CAPE
0 0 0 0 0 24 24 0 152 0 42 229 113 210 231 602 507 563 659 759 933 1091 1451 2090 1979 1359 1161 1366 1432 1555 1646 2349
0 0 0 0 1 20 49 22 250 150 44 9 43 272 425 227 200 151 173 293 308 452 606 700 873 1051 1016 710 683 569 716 1040
24 5 0 0 4 36 87 106 3 35 34 4 0 97 413 156 96 21 16 48 11 7 0 13 52 114 247 508 544 453 330 608
80 97 106 60 18 43 10 2 0 1 13 17 0 10 126 36 0 0 0 0 0 0 0 0 0 0 0 0 1 38 166 261
0 144 74 19 0 1 15 11 73 38 0 39 0 0 51 29 0 0 0 0 0 0 0 0 0 0 0 0 0 0 0 0
50 98 35 2 0 4 1 71 8 0 2 4 9 1 0 10 0 0 0 0 0 0 0 0 0 0 0 0 0 0 0 0
112 17 8 0 0 7 1 13 0 18 4 0 45 100 5 0 0 0 0 0 0 0 0 0 0 0 0 0 0 0 0 0
232 77 48 1 0 2 16 12 518 159 428 183 199 162 0 0 0 0 0 0 0 0 0 0 0 0 0 0 0 0 0 0
170 145 91 10 5 0 33 69 98 292 323 93 12 0 0 0 0 0 0 0 0 0 0 0 0 0 0 0 0 0 0 0
117 46 17 6 30 23 39 2 134 88 0 1 0 0 0 0 0 0 0 0 0 0 0 0 0 0 0 0 0 0 0 0
0 10 6 24 65 4 2 0 0 8 0 0 0 0 0 0 0 0 0 0 0 0 0 0 0 0 0 0 0 0 1 0
0 0 0 20 0 0 0 0 0 0 0 0 0 0 0 0 0 0 0 0 0 0 0 0 0 0 0 0 0 0 0 0
0 0 6 0 0 0 0 5 0 0 0 0 0 0 0 0 0 0 0 0 0 0 0 0 0 0 0 0 0 2 0 0
0 0 1 13 2 59 13 0 0 0 0 0 0 0 0 0 0 0 0 0 0 0 0 0 0 0 0 0 0 1 0 0
171 194 0 55 43 10 0 0 0 0 0 0 0 0 0 0 0 0 0 0 0 0 0 0 1 0 1 0 0 0 0 0
116 36 1 0 0 0 0 0 0 0 0 0 0 0 0 0 0 0 0 0 0 0 0 0 0 0 0 0 0 0 0 1
0 22 1 0 0 0 0 0 0 0 0 0 0 0 0 0 0 0 0 0 0 0 0 0 0 0 0 0 0 0 1 2
108 164 3 0 0 0 0 0 0 0 0 0 0 0 0 0 0 0 0 0 0 0 0 0 0 0 0 0 0 0 1 2
2 8 0 0 0 0 0 0 0 0 0 0 0 0 0 0 0 0 0 0 0 0 0 0 0 0 2 0 0 0 2 1
CIN
0 0 0 0 0 -20 -36 0 -58 0 -83 -90 -181 -87 -139 -85 -163 -221 -240 -264 -260 -209 -184 -101 -131 -199 -226 -182 -162 -143 -131 -55
-3 0 0 0 -3 -44 -64 -74 -24 -102 -179 -286 -72 -118 -47 -91 -182 -246 -286 -328 -378 -337 -268 -268 -247 -210 -221 -265 -264 -298 -260 -197
-54 -41 0 0 -37 -64 -157 -183 -28 -129 -142 -85 0 -91 -63 -169 -216 -307 -332 -344 -259 -153 0 -137 -416 -432 -363 -271 -254 -266 -289 -219
-35 -123 -127 -130 -146 -166 -117 -145 -13 -64 -196 -243 0 -318 -153 -227 -9 0 0 0 0 0 0 0 0 0 0 0 -27 -337 -279 -224
0 -42 -110 -88 -5 -55 -179 -191 -110 -44 0 -248 -52 0 -219 -258 0 0 0 0 0 0 0 0 0 0 0 0 0 0 0 0
-40 -89 -188 -129 0 -176 -93 -148 -59 0 -40 -309 -372 -101 0 -313 0 0 0 0 0 0 0 0 0 0 0 0 0 0 0 0
-126 -241 -279 -8 0 -120 -30 -150 0 -49 -117 0 -247 -274 -276 0 0 0 0 0 0 0 0 0 0 0 0 0 0 0 0 0
-148 -218 -184 -28 0 -45 -98 -147 -34 -60 -88 -206 -143 -98 0 0 0 0 0 0 0 0 0 0 0 0 0 0 0 0 0 0
-18 -103 -77 -84 -76 -34 -115 -172 -48 -39 -128 -183 -181 0 0 0 0 0 0 0 0 0 0 0 0 0 0 0 0 0 0 0
-68 -115 -45 -37 -141 -221 -89 -44 -72 -141 -24 -111 0 0 0 0 0 0 0 0 0 0 0 0 0 0 0 0 0 0 0 0
0 -13 -43 -36 -35 -114 -33 0 -3 -130 0 0 0 0 0 0 0 0 0 0 0 0 0 0 0 0 0 0 0 0 -11 0
0 0 0 -37 0 0 0 0 0 0 0 0 0 0 0 0 0 0 0 0 0 0 0 0 0 0 0 0 0 0 0 0
0 0 -4 -6 0 0 0 -224 0 0 0 0 0 0 0 0 0 0 0 0 0 0 0 0 0 0 0 0 -2 -4 -2 -3
-31 0 -8 -103 -16 -105 -145 0 0 0 0 0 0 0 0 0 0 0 0 0 0 0 0 0 0 0 0 0 -3 -6 0 0
-31 -50 -7 -148 -166 -140 0 0 0 0 0 0 0 0 0 0 0 0 0 0 0 0 0 0 -5 -1 0 0 -1 0 0 0
-35 -125 -117 0 0 0 0 0 0 0 0 0 0 0 0 0 0 0 0 0 0 0 0 0 -1 0 0 -1 0 0 0 0
-4 -131 -160 0 0 0 0 0 0 0 0 0 0 0 0 0 0 0 0 0 0 0 0 0 -1 0 0 0 -1 -1 0 0
-60 -57 -88 -5 0 0 0 0 0 0 0 0 0 0 0 0 0 0 0 0 0 0 0 0 0 0 0 -2 -2 0 0 0
-4 -138 -2 0 0 0 0 0 0 0 0 0 0 0 0 0 0 0 0 0 0 0 0 0 0 0 -3 0 -2 0 0 0
Wind_Speed
14 2 8 7 21 20 19 20 15 13 12 11 19 14 14 11 13 15 16 18 20 21 21 20 20 20 19 17 16 18 21 21
13 22 21 12 18 22 20 19 17 13 16 16 14 11 21 16 11 14 17 19 21 22 22 21 21 20 19 19 20 22 22 23
12 15 16 21 15 17 16 18 19 13 14 5 4 2 7 21 11 14 18 19 20 22 24 24 24 24 24 24 24 25 26 26
2 14 15 16 16 17 17 16 17 17 14 5 7 25 12 15 10 13 17 20 21 22 24 26 26 26 27 28 28 29 28 27
24 17 18 15 19 19 15 18 22 23 17 16 18 23 19 10 9 13 14 18 20 22 23 25 27 27 28 28 29 30 30 29
20 14 19 24 19 19 19 22 28 11 20 14 23 20 16 9 10 10 14 16 18 21 24 26 26 28 29 30 30 30 29 30
15 18 20 24 29 25 23 16 11 5 6 5 13 16 14 7 9 13 16 19 22 25 27 27 27 29 30 29 30 31 33 33
18 19 25 32 28 25 33 30 20 6 8 8 6 7 7 6 8 13 17 20 24 26 27 27 28 30 32 31 31 32 33 32
18 18 22 23 23 17 19 27 21 9 6 8 7 6 6 8 11 14 19 20 22 23 25 27 29 29 30 31 31 33 34 33
16 13 28 25 9 4 6 15 11 9 7 7 8 9 9 10 11 15 16 18 22 25 26 28 27 29 31 32 34 34 34 33
23 25 26 24 11 5 6 17 11 7 8 8 10 11 12 12 12 13 15 18 21 23 26 26 29 31 33 35 35 33 33 35
25 29 27 18 12 11 11 17 12 8 6 6 7 13 11 11 13 16 18 20 23 25 26 29 31 33 34 35 34 34 34 35
23 26 23 12 11 15 19 14 11 11 11 12 13 12 11 13 16 18 20 21 23 25 27 29 30 32 33 34 33 34 35 35
22 22 16 18 15 18 9 11 11 12 13 14 13 13 14 16 18 19 21 23 24 26 27 29 30 31 32 32 33 34 36 36
18 14 12 13 11 9 9 11 12 12 15 15 15 15 16 17 18 20 22 24 24 25 28 29 29 30 31 31 33 35 36 37
15 9 9 10 11 13 10 11 14 15 16 17 16 16 17 18 19 21 23 23 24 26 28 29 30 30 29 31 33 35 36 37
18 9 9 9 9 10 11 13 14 17 17 18 17 18 18 18 20 21 22 23 24 25 27 28 29 30 28 31 33 34 35 35
17 10 11 9 8 8 10 11 13 14 15 17 17 17 18 19 19 21 22 23 23 24 26 27 28 30 29 31 31 33 33 34
12 13 12 14 9 8 10 11 14 15 14 15 17 17 18 18 20 21 22 22 21 22 23 26 26 28 30 31 31 32 33 33
Wind_Direction
160 80 142 158 209 322 339 327 335 11 340 357 322 330 316 356 338 357 3 3 4 13 3 16 15 10 8 358 349 347 343 340
311 294 303 327 320 323 327 325 333 339 333 333 322 68 251 290 353 355 358 3 5 7 8 5 4 7 4 5 357 351 344 340
330 318 334 298 318 326 334 325 328 341 351 7 4 319 117 230 23 10 350 358 356 351 351 351 350 349 347 346 345 343 342 338
78 349 8 358 345 349 344 342 349 346 359 77 75 150 120 127 45 14 357 349 352 351 348 343 346 346 342 340 340 338 340 338
293 307 318 325 339 342 342 332 319 315 351 158 152 151 161 106 34 13 8 354 347 348 349 348 346 346 345 343 339 335 334 333
305 321 323 310 324 326 332 319 327 227 227 173 171 163 171 86 66 45 14 6 2 352 347 347 348 344 341 339 337 335 333 330
319 321 327 325 310 302 312 337 310 229 179 142 148 151 150 67 47 11 358 350 345 341 341 342 344 342 342 344 339 335 330 328
304 317 322 320 307 315 274 281 337 67 22 53 55 104 93 72 30 358 348 341 339 340 339 341 342 341 339 340 339 338 333 329
303 314 325 319 333 328 320 257 223 347 30 72 67 73 34 17 5 351 342 344 347 348 344 341 342 343 345 343 342 338 334 332
314 318 305 325 337 99 59 26 31 49 53 57 48 27 20 21 358 347 350 352 348 344 344 345 349 346 343 341 338 336 333 331
293 302 313 322 355 135 8 336 0 60 60 45 41 17 3 5 2 359 358 353 352 351 348 351 348 347 343 340 337 338 336 331
300 296 300 312 325 337 343 321 353 48 40 37 30 339 351 5 360 353 354 354 349 348 350 347 347 345 343 341 341 337 336 334
306 302 310 318 316 308 299 316 348 1 1 353 345 355 3 3 355 354 352 354 355 354 350 351 350 349 347 344 343 340 336 336
307 311 302 307 317 303 338 356 357 357 1 1 1 358 356 353 353 354 354 351 352 351 352 353 351 352 350 349 344 338 334 335
317 322 338 350 354 13 12 0 356 357 352 353 352 351 351 352 353 352 351 351 355 354 351 351 353 354 352 353 344 338 336 333
325 339 347 351 359 355 13 3 358 357 351 347 350 351 352 350 350 350 349 350 352 352 351 351 352 354 355 352 346 341 337 335
320 342 350 349 349 353 357 356 352 348 348 347 349 351 348 349 349 349 351 351 353 354 354 353 353 355 357 348 345 342 343 342
315 345 338 351 13 17 3 359 359 357 356 354 352 350 349 348 352 349 349 351 352 354 354 355 356 357 359 352 350 344 347 347
340 340 355 348 9 16 4 4 358 357 360 358 355 357 353 351 351 350 349 350 354 356 359 357 358 359 357 354 355 354 349 350